EW8041 Weather Reports


Display with metric or nautical units.
time (UTC)temp
F
wind
direction
speed
MPH
gust
MPH
rain 1hr
in
rain 24hr
in
rain mn
in
humidity
%
barometer
mb
20260509235518 73 293 0.0 1.0 0.00 0.00 0.00 71 1011.3
20260509234534 73 293 0.0 1.0 0.00 0.00 0.00 70 1011.2
20260509233530 74 293 0.0 1.0 0.00 0.00 0.00 70 1010.9
20260509232545 74 293 0.0 1.0 0.00 0.00 0.00 69 1011.1
20260509231520 75 293 0.0 1.0 0.00 0.00 0.00 69 1011.2
20260509230535 75 293 1.0 3.0 0.00 0.00 0.00 69 1011.0
20260509225530 75 293 1.0 2.0 0.00 0.00 0.00 69 1011.0
20260509224544 75 293 1.0 3.0 0.00 0.00 0.00 68 1011.0
20260509223520 76 293 0.0 1.0 0.00 0.00 0.00 68 1010.8
20260509222535 76 291 1.0 3.0 0.00 0.00 0.00 68 1010.9
20260509221531 76 318 1.0 2.0 0.00 0.00 0.00 69 1010.8
20260509220526 75 318 1.0 3.0 0.00 0.00 0.00 69 1010.9
20260509215521 76 318 1.0 2.0 0.00 0.00 0.00 68 1010.8
20260509214517 76 318 1.0 3.0 0.00 0.00 0.00 69 1010.7
20260509213533 76 318 1.0 3.0 0.00 0.00 0.00 69 1010.6
20260509212528 76 318 1.0 2.0 0.00 0.00 0.00 69 1010.6
20260509211524 76 303 2.0 6.0 0.00 0.00 0.00 70 1010.6
20260509210520 76 280 2.0 7.0 0.00 0.00 0.00 70 1010.7
20260509205535 76 278 2.0 6.0 0.00 0.00 0.00 71 1011.0
20260509204531 76 284 1.0 7.0 0.00 0.00 0.00 70 1011.0
20260509203527 76 279 1.0 3.0 0.00 0.00 0.00 70 1011.0
20260509202523 76 282 1.0 4.0 0.00 0.00 0.00 71 1011.2
20260509201518 76 286 2.0 7.0 0.00 0.00 0.00 72 1011.2
20260509200534 75 280 1.0 6.0 0.00 0.00 0.00 71 1011.1
20260509195530 76 267 2.0 4.0 0.00 0.00 0.00 73 1011.2
20260509194525 76 294 2.0 7.0 0.00 0.00 0.00 73 1011.1
20260509193520 76 268 2.0 6.0 0.00 0.00 0.00 74 1011.1
20260509192516 75 235 2.0 6.0 0.00 0.00 0.00 73 1011.1
20260509191531 76 244 3.0 8.0 0.00 0.00 0.00 75 1011.4
20260509190527 75 257 2.0 6.0 0.00 0.00 0.00 75 1011.4
20260509185543 75 271 2.0 6.0 0.00 0.00 0.00 75 1011.5
20260509184519 75 281 2.0 4.0 0.00 0.00 0.00 75 1011.9
20260509183534 75 302 2.0 3.0 0.00 0.00 0.00 75 1011.7
20260509182610 75 281 3.0 6.0 0.00 0.00 0.00 76 1011.9
20260509181606 74 289 2.0 7.0 0.00 0.00 0.00 76 1011.9
20260509180542 74 263 3.0 7.0 0.00 0.00 0.00 78 1011.9
20260509175517 73 281 1.0 6.0 0.00 0.00 0.00 77 1011.7
20260509174533 74 276 2.0 6.0 0.00 0.00 0.00 77 1011.8
20260509173529 73 257 2.0 6.0 0.00 0.00 0.00 78 1011.6
20260509172524 74 263 2.0 7.0 0.00 0.00 0.00 79 1011.6
20260509171520 73 248 1.0 3.0 0.00 0.00 0.00 80 1011.9
20260509170516 73 264 1.0 4.0 0.00 0.00 0.00 79 1012.0
20260509165552 73 266 2.0 6.0 0.00 0.00 0.00 80 1012.3
20260509164527 72 189 2.0 6.0 0.00 0.00 0.00 81 1012.4
20260509163522 72 233 2.0 6.0 0.00 0.00 0.00 80 1012.4
20260509162538 73 208 2.0 4.0 0.00 0.00 0.00 82 1012.5
20260509161534 73 218 2.0 4.0 0.00 0.00 0.00 83 1012.4
20260509160530 72 268 3.0 7.0 0.00 0.00 0.00 83 1012.4
20260509155546 71 223 2.0 6.0 0.00 0.00 0.00 83 1012.3
20260509154522 71 244 3.0 6.0 0.00 0.00 0.00 84 1012.4
20260509153518 71 237 1.0 3.0 0.00 0.00 0.00 85 1012.5
20260509152535 70 139 2.0 4.0 0.00 0.00 0.00 85 1012.5
20260509151531 69 195 1.0 3.0 0.00 0.00 0.00 88 1012.5
20260509150526 69 169 1.0 3.0 0.00 0.00 0.00 89 1012.5
20260509145542 67 156 1.0 6.0 0.00 0.00 0.00 90 1012.6
20260509144517 64 167 2.0 6.0 0.00 0.00 0.00 90 1012.6
20260509143533 63 181 1.0 2.0 0.00 0.00 0.00 90 1012.6
20260509142528 63 147 1.0 3.0 0.00 0.00 0.00 90 1012.7
20260509141524 62 180 1.0 3.0 0.00 0.00 0.00 90 1012.6
20260509140540 62 216 1.0 4.0 0.00 0.00 0.00 90 1012.4
20260509135535 61 173 1.0 2.0 0.00 0.00 0.00 91 1012.1
20260509134531 61 161 1.0 3.0 0.00 0.00 0.00 91 1011.9
20260509133546 60 204 1.0 2.0 0.00 0.00 0.00 90 1011.8
20260509132522 60 236 1.0 3.0 0.00 0.00 0.00 90 1011.7
20260509131518 60 282 1.0 4.0 0.00 0.00 0.00 90 1011.7
20260509130533 60 147 1.0 2.0 0.00 0.00 0.00 90 1011.9
20260509125529 60 192 1.0 6.0 0.00 0.00 0.00 90 1011.9
20260509124525 60 161 2.0 4.0 0.00 0.00 0.00 90 1012.0
20260509123521 60 169 1.0 4.0 0.00 0.00 0.00 90 1012.1
20260509122516 60 158 1.0 3.0 0.00 0.00 0.00 90 1012.1
20260509121533 59 165 2.0 4.0 0.00 0.00 0.00 90 1012.1
20260509120528 59 196 2.0 6.0 0.00 0.00 0.00 89 1012.1
20260509115524 59 168 2.0 6.0 0.00 0.00 0.00 90 1012.0
20260509114520 59 167 1.0 4.0 0.00 0.00 0.00 89 1011.6
20260509113516 59 164 1.0 4.0 0.00 0.00 0.00 89 1011.3
20260509112552 59 271 1.0 2.0 0.00 0.00 0.00 90 1011.1
20260509111528 59 279 1.0 3.0 0.00 0.00 0.00 90 1011.0
20260509110524 58 170 1.0 3.0 0.00 0.00 0.00 89 1011.2
20260509105520 58 154 1.0 3.0 0.00 0.00 0.00 89 1011.0
20260509104516 58 169 1.0 3.0 0.00 0.00 0.00 88 1010.9
20260509103532 58 172 0.0 2.0 0.00 0.00 0.00 88 1010.7
20260509102548 58 172 0.0 1.0 0.00 0.00 0.00 88 1010.5
20260509101525 58 172 0.0 1.0 0.00 0.00 0.00 88 1010.5
20260509100520 58 114 0.0 1.0 0.00 0.00 0.00 88 1010.6
20260509095536 58 121 0.0 3.0 0.00 0.00 0.00 87 1010.9
20260509094532 58 140 0.0 1.0 0.00 0.00 0.00 87 1011.0
20260509093528 59 173 0.0 1.0 0.00 0.00 0.00 87 1010.8
20260509092524 58 168 1.0 2.0 0.00 0.00 0.00 87 1010.7
20260509091520 58 109 1.0 2.0 0.00 0.00 0.00 87 1010.8
20260509090516 58 164 1.0 4.0 0.00 0.00 0.00 87 1011.0
20260509085531 58 181 1.0 4.0 0.00 0.00 0.00 86 1011.2
20260509084527 58 184 1.0 3.0 0.00 0.00 0.00 86 1011.2
20260509083523 58 183 1.0 2.0 0.00 0.00 0.00 86 1011.5
20260509082519 57 181 1.0 2.0 0.00 0.00 0.00 86 1011.6
20260509081535 57 180 0.0 1.0 0.00 0.00 0.00 86 1011.5
20260509080531 57 180 0.0 2.0 0.00 0.00 0.00 86 1011.5
20260509075527 56 177 1.0 2.0 0.00 0.00 0.00 86 1011.4
20260509074542 56 175 1.0 3.0 0.00 0.00 0.00 86 1011.4
20260509073518 55 142 0.0 1.0 0.00 0.00 0.00 86 1011.2
20260509072534 55 142 0.0 1.0 0.00 0.00 0.00 85 1011.4
20260509071530 54 0.0 0.0 0.00 0.00 0.00 85 1011.1
20260509070526 54 0.0 0.0 0.00 0.00 0.00 85 1011.3
20260509065602 53 0.0 0.0 0.00 0.00 0.00 84 1011.4
20260509064518 53 0.0 0.0 0.00 0.00 0.00 84 1011.2
20260509063534 53 0.0 0.0 0.00 0.00 0.00 83 1011.1
20260509062529 53 0.0 0.0 0.00 0.00 0.00 83 1011.0
20260509061525 53 141 0.0 1.0 0.00 0.00 0.00 82 1011.3
20260509060521 53 0.0 0.0 0.00 0.00 0.00 82 1011.4
20260509055537 53 0.0 0.0 0.00 0.00 0.00 82 1011.4
20260509054533 53 141 0.0 1.0 0.00 0.00 0.00 81 1011.3
20260509053528 53 0.0 0.0 0.00 0.00 0.00 81 1011.6
20260509052524 54 0.0 0.0 0.00 0.00 0.00 81 1011.8
20260509051540 54 0.0 0.0 0.00 0.00 0.00 80 1011.8
20260509050516 54 0.0 0.0 0.00 0.00 0.00 80 1011.8
20260509045532 54 0.0 0.0 0.00 0.00 0.00 79 1012.0
20260509044528 54 0.0 0.0 0.00 0.00 0.00 79 1012.2
20260509043524 54 0.0 0.0 0.00 0.00 0.00 78 1012.2
20260509042519 54 0.0 0.0 0.00 0.00 0.00 78 1012.1
20260509041534 55 0.0 0.0 0.00 0.00 0.00 77 1012.3
20260509040550 55 0.0 0.0 0.00 0.00 0.00 77 1012.3
20260509035526 55 141 0.0 1.0 0.00 0.00 0.00 76 1012.3
20260509034522 55 141 0.0 1.0 0.00 0.00 0.00 76 1012.4
20260509033518 56 0.0 0.0 0.00 0.00 0.00 75 1012.4
20260509032534 56 141 0.0 1.0 0.00 0.00 0.00 75 1012.5
20260509031529 57 141 0.0 1.0 0.00 0.00 0.00 74 1012.8
20260509030525 57 0.0 0.0 0.00 0.00 0.00 73 1012.9
20260509025521 58 141 0.0 1.0 0.00 0.00 0.00 73 1012.7
20260509024516 58 141 0.0 1.0 0.00 0.00 0.00 72 1012.6
20260509023552 59 0.0 0.0 0.00 0.00 0.00 71 1012.7
20260509022528 60 141 0.0 1.0 0.00 0.00 0.00 71 1012.7
20260509021543 60 142 1.0 2.0 0.00 0.00 0.00 70 1012.7
20260509020520 61 174 1.0 1.0 0.00 0.00 0.00 70 1012.8
20260509015535 62 177 0.0 2.0 0.00 0.00 0.00 69 1012.7
20260509014551 62 180 1.0 4.0 0.00 0.00 0.00 69 1012.7
20260509013526 63 166 2.0 6.0 0.00 0.00 0.00 68 1012.5
20260509012522 63 169 2.0 6.0 0.00 0.00 0.00 68 1012.6
20260509011517 64 182 2.0 8.0 0.00 0.00 0.00 67 1012.5
20260509010533 64 169 2.0 7.0 0.00 0.00 0.00 67 1012.5
20260509005528 64 173 3.0 8.0 0.00 0.00 0.00 66 1012.5
20260509004524 65 162 2.0 4.0 0.00 0.00 0.00 66 1012.3
20260509003519 65 184 1.0 4.0 0.00 0.00 0.00 66 1012.3
20260509002515 66 186 3.0 7.0 0.00 0.00 0.00 65 1012.5
20260509001531 66 187 2.0 6.0 0.00 0.00 0.00 64 1012.6
20260509000527 67 178 3.0 7.0 0.00 0.00 0.00 64 1012.6